[[{"header":{"parameterUnit":"m.s-1","parameterCategory":1,"la1":30.2991,"la2":30.254,"lo1":-89.0895,"lo2":-89.0444,"dy":0.0017,"dx":0.0017,"nx":28,"ny":28,"refTime":"2023-09-13T03:00:00:Z","depth":0,"parameterNumber":2,"parameterNumberName":"U-component_of_WINDS"},"data":[0,0,0,0,0,0,0,0,0,0,0,0,0,0,0,0,0,0,0,0,0,0,0,0,0,0,0,0,0,0,0,0,0,0,0,0,0,0,0,0,0,0,0,0,0,0,0,0,0,0,0,0,0,0,0,0,0,0,-0.2316,-0.2316,0,-0.231,-0.231,-0.231,-0.2248,-0.2247,-0.2245,-0.2244,-0.2241,-0.2242,-0.2243,0,0,0,0,0,0,0,0,0,0,0,0,0,-0.2276,-0.2277,-0.2316,-0.2316,-0.2316,-0.231,-0.231,-0.231,-0.2249,-0.2247,-0.2245,-0.2243,-0.224,-0.2242,-0.2244,0,0,0,0,0,0,0,0,0,0,0,0,0,-0.2285,-0.2278,-0.2316,-0.2285,-0.2282,-0.231,-0.231,-0.231,-0.2249,-0.2247,-0.2244,-0.2242,-0.224,-0.2242,-0.2244,-0.2303,0,0,-0.225,-0.2251,0,0,0,0,0,0,0,0,-0.2284,-0.2286,-0.2289,-0.2287,-0.2284,-0.2278,-0.2295,-0.2308,-0.225,-0.2262,-0.2244,-0.2241,-0.2255,-0.2256,-0.226,-0.2303,-0.2303,-0.225,-0.2252,-0.2252,-0.2253,0,0,0,0,0,0,0,-0.2284,-0.2286,-0.2314,-0.229,-0.2286,-0.2271,-0.227,-0.2297,-0.2272,-0.226,-0.2256,-0.2256,-0.2253,-0.2258,-0.2259,-0.2303,-0.225,-0.2252,-0.2253,-0.2254,-0.2395,-0.2397,0,0,0,0,0,0,-0.2287,-0.2286,-0.2314,-0.2314,-0.2278,-0.2274,-0.2272,-0.2282,-0.2271,-0.2267,-0.2258,-0.2253,-0.2256,-0.2257,-0.2259,-0.2329,-0.2252,-0.2254,-0.2256,-0.2392,-0.2395,-0.2398,0,0,0,0,0,0,-0.2286,-0.229,-0.2314,-0.2299,-0.2301,-0.2277,-0.2289,-0.2283,-0.2288,-0.2269,-0.2265,-0.2268,-0.2254,-0.2256,-0.2293,-0.2328,-0.2255,-0.2257,-0.239,-0.2393,-0.2397,-0.2468,0,0,0,0,0,0,-0.2286,-0.229,-0.2312,-0.23,-0.2302,-0.2348,-0.2291,-0.2285,-0.2291,-0.2285,-0.2277,-0.2274,-0.2252,-0.229,-0.2295,-0.2329,-0.2259,-0.2386,-0.2391,-0.2396,-0.2462,-0.2474,-0.2483,0,0,0,0,0,-0.2284,-0.2333,-0.2314,-0.2318,-0.2328,-0.235,-0.2351,-0.2325,-0.2294,-0.2317,-0.2305,-0.2274,-0.2323,-0.2294,-0.2299,-0.2335,-0.2384,-0.239,-0.2395,-0.2458,-0.2471,-0.2483,0,0,0,0,0,0,-0.2352,-0.2331,-0.2309,-0.2355,-0.2355,-0.2339,-0.2367,-0.234,-0.2349,-0.2343,-0.2311,-0.2309,-0.2351,-0.2346,-0.2315,-0.2392,-0.2348,-0.2355,-0.2394,-0.2407,-0.2417,-0.2418,-0.226,0,0,0,0,0,-0.2372,-0.239,-0.2371,-0.2413,-0.2414,-0.2391,-0.2399,-0.2379,-0.2377,-0.2377,-0.2367,-0.2368,-0.2383,-0.2394,-0.2407,-0.2461,-0.2459,-0.2487,-0.2498,-0.2506,-0.2513,-0.2542,-0.2555,-0.2417,-0.2417,-0.2417,0,0,-0.2414,-0.2404,-0.2418,-0.2427,-0.2424,-0.2445,-0.2391,-0.2415,-0.243,-0.2381,-0.2415,-0.2408,-0.2406,-0.2451,-0.2471,-0.2449,-0.2551,-0.2514,-0.2521,-0.2523,-0.2549,-0.2562,-0.2574,-0.2421,-0.242,-0.2419,0,0,-0.2501,-0.2495,-0.253,-0.2528,-0.2524,-0.2508,-0.2516,-0.2505,-0.2498,-0.2531,-0.2495,-0.2513,-0.254,-0.254,-0.2544,-0.263,-0.2603,-0.2636,-0.2691,-0.2719,-0.273,-0.2739,-0.2771,-0.2783,-0.2642,-0.2642,-0.2642,0,-0.2554,-0.2583,-0.2552,-0.2578,-0.2583,-0.2538,-0.2574,-0.2573,-0.2575,-0.258,-0.2554,-0.2587,-0.2583,-0.2628,-0.2649,-0.2653,-0.2662,-0.2637,-0.273,-0.274,-0.2748,-0.2778,-0.279,-0.2646,-0.2646,-0.2645,-0.2645,0,-0.2648,-0.2669,-0.2698,-0.2699,-0.2707,-0.2738,-0.2712,-0.2724,-0.2703,-0.269,-0.2724,-0.2717,-0.2728,-0.2737,-0.2717,-0.2779,-0.2766,-0.2736,-0.2692,-0.2766,-0.2794,-0.2805,-0.2652,-0.2651,-0.265,-0.2649,0,0,-0.278,-0.2762,-0.2774,-0.2774,-0.2766,-0.2781,-0.281,-0.282,-0.2831,-0.2833,-0.2857,-0.2881,-0.2853,-0.2857,-0.2836,-0.2861,-0.2931,-0.2828,-0.2827,-0.2848,-0.3,-0.3024,-0.3038,-0.2912,-0.2914,-0.2915,-0.3001,0,-0.2864,-0.2912,-0.2885,-0.2937,-0.2956,-0.2913,-0.2938,-0.2937,-0.2925,-0.294,-0.2926,-0.2944,-0.2905,-0.2908,-0.293,-0.2918,-0.2961,-0.2911,-0.2935,-0.2936,-0.2938,-0.3052,-0.3077,-0.3159,-0.3011,-0.3013,-0.3015,0,-0.297,-0.2976,-0.303,-0.3018,-0.3025,-0.3048,-0.3055,-0.3069,-0.3066,-0.3056,-0.306,-0.3034,-0.3062,-0.3017,-0.3056,-0.3022,-0.303,-0.3025,-0.3028,-0.3031,-0.2981,-0.3059,-0.3184,-0.3197,-0.3031,-0.303,-0.3029,0,-0.3062,-0.3083,-0.3118,-0.3119,-0.3106,-0.3123,-0.3119,-0.3113,-0.3121,-0.3127,-0.3132,-0.3141,-0.3147,-0.3155,-0.3132,-0.3101,-0.3174,-0.3127,-0.3168,-0.3168,-0.3187,-0.3186,-0.3316,-0.3189,-0.3189,-0.3189,-0.3189,0,-0.3161,-0.3196,-0.3159,-0.3181,-0.3219,-0.3187,-0.3226,-0.3217,-0.3212,-0.3232,-0.3195,-0.3214,-0.3181,-0.3198,-0.318,-0.3215,-0.3218,-0.3211,-0.3206,-0.3215,-0.3217,-0.3222,-0.3216,-0.3192,-0.3191,-0.3191,-0.319,0,-0.327,-0.3247,-0.3282,-0.3267,-0.3263,-0.3292,-0.3279,-0.3299,-0.3284,-0.3309,-0.3314,-0.3291,-0.3308,-0.3285,-0.33,-0.3288,-0.3337,-0.3323,-0.3338,-0.3334,-0.3377,-0.3374,-0.3515,-0.3533,-0.3394,-0.3395,-0.3397,0,-0.3336,-0.3361,-0.3348,-0.3358,-0.3355,-0.3372,-0.338,-0.3349,-0.3358,-0.3357,-0.3377,-0.3391,-0.3401,-0.343,-0.3416,-0.3427,-0.3414,-0.3463,-0.3416,-0.3424,-0.3416,-0.3416,-0.3419,-0.3473,-0.3475,-0.3476,-0.3477,0,-0.3454,-0.3441,-0.3453,-0.346,-0.347,-0.3475,-0.3477,-0.3487,-0.3455,-0.3468,-0.3484,-0.3492,-0.3507,-0.3522,-0.3529,-0.3525,-0.3497,-0.3492,-0.3502,-0.3513,-0.3521,-0.3518,-0.3366,-0.3489,-0.3488,-0.3487,-0.3486,-0.3486,-0.3544,-0.3566,-0.3559,-0.3574,-0.3572,-0.3574,-0.3592,-0.3579,-0.3592,-0.3602,-0.3583,-0.3604,-0.3601,-0.3607,-0.3607,-0.3624,-0.3603,-0.3617,-0.3621,-0.3626,-0.3633,-0.3517,-0.3625,-0.3624,-0.3624,-0.3624,-0.3623,0,-0.3662,-0.3656,-0.3669,-0.3673,-0.3684,-0.3654,-0.3655,-0.3667,-0.3686,-0.3685,-0.3695,-0.3714,-0.3728,-0.3714,-0.3725,-0.3742,-0.3729,-0.3746,-0.3745,-0.3745,-0.365,-0.3641,-0.3756,-0.3756,-0.3756,-0.3756,-0.3756,-0.3756,-0.3725,-0.3759,-0.3746,-0.3779,-0.3772,-0.3793,-0.3796,-0.3798,-0.3797,-0.382,-0.3831,-0.3821,-0.3815,-0.3825,-0.3837,-0.3832,-0.3839,-0.3861,-0.3852,-0.3764,-0.3751,-0.3739,-0.373,-0.3862,-0.3862,-0.3945,-0.3946,-0.3947]},{"header":{"parameterUnit":"m.s-1","parameterCategory":1,"la1":30.2991,"la2":30.254,"lo1":-89.0895,"lo2":-89.0444,"dy":0.0017,"dx":0.0017,"nx":28,"ny":28,"refTime":"2023-09-13T03:00:00:Z","depth":0,"parameterNumber":3,"parameterNumberName":"V-component_of_WINDS"},"data":[0,0,0,0,0,0,0,0,0,0,0,0,0,0,0,0,0,0,0,0,0,0,0,0,0,0,0,0,0,0,0,0,0,0,0,0,0,0,0,0,0,0,0,0,0,0,0,0,0,0,0,0,0,0,0,0,0,0,-3.7565,-3.7566,0,-3.7637,-3.7637,-3.7638,-3.7586,-3.7583,-3.7581,-3.7579,-3.7648,-3.7651,-3.7655,0,0,0,0,0,0,0,0,0,0,0,0,0,-3.7378,-3.7382,-3.7565,-3.7566,-3.7567,-3.7636,-3.7637,-3.7638,-3.7586,-3.7583,-3.758,-3.7578,-3.7646,-3.7651,-3.7656,0,0,0,0,0,0,0,0,0,0,0,0,0,-3.7455,-3.7383,-3.7565,-3.7549,-3.7548,-3.7636,-3.7637,-3.7639,-3.7587,-3.7583,-3.758,-3.7576,-3.7645,-3.765,-3.7656,-3.7762,0,0,-3.7675,-3.7677,0,0,0,0,0,0,0,0,-3.7451,-3.7462,-3.755,-3.755,-3.755,-3.7599,-3.7597,-3.768,-3.7587,-3.7572,-3.7579,-3.7575,-3.7634,-3.764,-3.7661,-3.7765,-3.7768,-3.7675,-3.7679,-3.7681,-3.7683,0,0,0,0,0,0,0,-3.7446,-3.7459,-3.7593,-3.7552,-3.7551,-3.7537,-3.7544,-3.7612,-3.7621,-3.7573,-3.7569,-3.7579,-3.7633,-3.7656,-3.7662,-3.7769,-3.7675,-3.768,-3.7684,-3.7686,-3.7965,-3.7968,0,0,0,0,0,0,-3.7442,-3.7455,-3.7591,-3.7595,-3.7491,-3.7543,-3.7551,-3.7586,-3.762,-3.7622,-3.7582,-3.7576,-3.7647,-3.7656,-3.7665,-3.7792,-3.7681,-3.7687,-3.769,-3.7961,-3.7965,-3.797,0,0,0,0,0,0,-3.7438,-3.7455,-3.7588,-3.7524,-3.754,-3.755,-3.759,-3.759,-3.7612,-3.7627,-3.7628,-3.7604,-3.7645,-3.7656,-3.7739,-3.7793,-3.769,-3.7695,-3.7956,-3.7962,-3.7968,-3.8046,0,0,0,0,0,0,-3.7433,-3.7454,-3.7495,-3.7525,-3.7543,-3.7662,-3.7593,-3.7593,-3.7623,-3.7617,-3.7648,-3.765,-3.7643,-3.773,-3.7745,-3.7799,-3.77,-3.7951,-3.7959,-3.7966,-3.8038,-3.8053,-3.8066,0,0,0,0,0,-3.7427,-3.7513,-3.7498,-3.7514,-3.7596,-3.7665,-3.7676,-3.7668,-3.7628,-3.7669,-3.7678,-3.7649,-3.7785,-3.7739,-3.7755,-3.7812,-3.7948,-3.7957,-3.7965,-3.8032,-3.805,-3.8066,0,0,0,0,0,0,-3.7487,-3.7517,-3.75,-3.7599,-3.763,-3.7656,-3.7708,-3.7687,-3.7729,-3.7721,-3.7708,-3.7715,-3.7802,-3.7815,-3.7764,-3.7917,-3.786,-3.7872,-3.7905,-3.7923,-3.7937,-3.7932,-3.7705,0,0,0,0,0,-3.7512,-3.7568,-3.759,-3.7675,-3.7692,-3.7698,-3.7728,-3.7719,-3.775,-3.7763,-3.7778,-3.7809,-3.7858,-3.7891,-3.7938,-3.804,-3.8046,-3.8087,-3.8101,-3.8113,-3.8123,-3.8179,-3.8197,-3.7998,-3.7998,-3.7998,0,0,-3.7564,-3.7587,-3.7623,-3.7688,-3.7711,-3.7768,-3.7709,-3.7771,-3.7813,-3.7772,-3.7852,-3.7864,-3.7897,-3.799,-3.8032,-3.8004,-3.818,-3.8124,-3.8133,-3.8137,-3.8189,-3.8208,-3.8225,-3.8004,-3.8003,-3.8002,0,0,-3.7687,-3.7711,-3.7785,-3.781,-3.7847,-3.785,-3.7868,-3.7898,-3.7905,-3.7985,-3.7956,-3.8004,-3.809,-3.8115,-3.8139,-3.8274,-3.8248,-3.8289,-3.8362,-3.8416,-3.8432,-3.8446,-3.8494,-3.8512,-3.83,-3.83,-3.83,0,-3.7746,-3.7833,-3.7824,-3.789,-3.792,-3.7887,-3.7961,-3.7985,-3.8035,-3.8055,-3.8024,-3.8132,-3.8151,-3.825,-3.8283,-3.8304,-3.8323,-3.8285,-3.8431,-3.8445,-3.8457,-3.8503,-3.8521,-3.8305,-3.8304,-3.8304,-3.8303,0,-3.7904,-3.7964,-3.8019,-3.807,-3.8106,-3.8175,-3.8177,-3.8213,-3.8202,-3.8208,-3.829,-3.8313,-3.8364,-3.8387,-3.8375,-3.8484,-3.8466,-3.8433,-3.8375,-3.8481,-3.8524,-3.8542,-3.8311,-3.831,-3.8308,-3.8307,0,0,-3.8066,-3.8114,-3.8134,-3.8157,-3.8196,-3.8242,-3.8309,-3.8361,-3.8393,-3.8428,-3.8485,-3.8559,-3.8529,-3.8556,-3.8547,-3.8595,-3.8701,-3.8556,-3.8556,-3.8582,-3.8823,-3.8848,-3.8868,-3.8684,-3.8687,-3.869,-3.882,0,-3.8192,-3.8313,-3.8308,-3.8419,-3.8475,-3.8445,-3.8504,-3.8534,-3.8542,-3.8589,-3.8597,-3.865,-3.8606,-3.8623,-3.8668,-3.8678,-3.8749,-3.8669,-3.8735,-3.8738,-3.8728,-3.889,-3.8917,-3.9039,-3.8837,-3.8839,-3.8842,0,-3.8355,-3.8399,-3.8517,-3.8549,-3.8572,-3.8625,-3.8672,-3.8718,-3.8751,-3.8753,-3.8785,-3.8769,-3.8836,-3.8777,-3.887,-3.8816,-3.8843,-3.8852,-3.8856,-3.8862,-3.8796,-3.8901,-3.9077,-3.9096,-3.8868,-3.8866,-3.8864,0,-3.8462,-3.855,-3.8632,-3.8653,-3.8692,-3.8731,-3.8748,-3.8778,-3.881,-3.8851,-3.8871,-3.8919,-3.8945,-3.8981,-3.8978,-3.8935,-3.9072,-3.9013,-3.9076,-3.9076,-3.9106,-3.9104,-3.9289,-3.9123,-3.9123,-3.9122,-3.9122,0,-3.8604,-3.8677,-3.8681,-3.8732,-3.8813,-3.8807,-3.8887,-3.89,-3.8927,-3.8979,-3.8955,-3.9004,-3.8996,-3.9045,-3.9043,-3.912,-3.9132,-3.9135,-3.9133,-3.9137,-3.9137,-3.9155,-3.9146,-3.9127,-3.9126,-3.9125,-3.9124,0,-3.8737,-3.8743,-3.8831,-3.8862,-3.8871,-3.893,-3.8955,-3.9002,-3.9009,-3.9075,-3.909,-3.9099,-3.9156,-3.9156,-3.922,-3.9218,-3.9313,-3.9301,-3.9303,-3.93,-3.9363,-3.9358,-3.9566,-3.9593,-3.941,-3.9411,-3.9413,0,-3.8827,-3.8883,-3.8921,-3.8955,-3.8976,-3.903,-3.9063,-3.9059,-3.9094,-3.9136,-3.9179,-3.9233,-3.9276,-3.9367,-3.9379,-3.9428,-3.9417,-3.9487,-3.9424,-3.9427,-3.9419,-3.9416,-3.9421,-3.9499,-3.9501,-3.9503,-3.9505,0,-3.8986,-3.8986,-3.9036,-3.9087,-3.9128,-3.9167,-3.9203,-3.9232,-3.9231,-3.9272,-3.933,-3.9364,-3.943,-3.9485,-3.9532,-3.9548,-3.9527,-3.9524,-3.9542,-3.9546,-3.9545,-3.9547,-3.9336,-3.952,-3.9518,-3.9517,-3.9516,-3.9515,-3.91,-3.9149,-3.9184,-3.924,-3.9267,-3.9302,-3.9349,-3.9362,-3.9412,-3.9466,-3.946,-3.9525,-3.9557,-3.9619,-3.9639,-3.9689,-3.9665,-3.9689,-3.9696,-3.9702,-3.9709,-3.9537,-3.9698,-3.9697,-3.9697,-3.9697,-3.9696,0,-3.9258,-3.928,-3.9331,-3.9384,-3.9429,-3.9406,-3.9445,-3.9483,-3.9542,-3.9574,-3.9618,-3.9685,-3.9738,-3.9755,-3.9805,-3.9842,-3.9834,-3.9856,-3.9853,-3.9857,-3.9728,-3.9708,-3.9862,-3.9862,-3.9862,-3.9862,-3.9862,-3.9862,-3.9346,-3.9428,-3.9433,-3.9528,-3.9548,-3.9614,-3.9638,-3.967,-3.9696,-3.9773,-3.9818,-3.9829,-3.9855,-3.9908,-3.9955,-3.9958,-3.9978,-4.0005,-4.0004,-3.9883,-3.9866,-3.985,-3.9832,-4.0009,-4.0009,-4.0129,-4.013,-4.0131]}]]